Juneau, AK

2:35 AM AKDT on August 20, 2017 (GMT -0800)
Juneau International

Weather History for PAJN - November, 2013

Change the Weather History Date:

Tuesday, November 12, 2013

  Actual Average Record
Temperature  
Mean Temperature 35 °F 34 °F  
Max Temperature 37 °F 38 °F 52 °F (1941)
Min Temperature 32 °F 29 °F 8 °F (1955)
Degree Days  
Heating Degree Days 30 31  
Month to date heating degree days 369 356  
Since 1 July heating degree days 1812 2041  
Moisture  
Dew Point 34 °F    
Average Humidity 96    
Maximum Humidity 100    
Minimum Humidity 92    
Precipitation  
Precipitation 0.11 in 0.20 in 1.59 in (2003)
Month to date precipitation 1.56 2.44  
Year to date precipitation 60.09 52.88  
Snow  
Snow T in 0.40 in 7.40 in (1986)
Month to date snowfall T 3.6  
Since 1 July snowfall T 4.4  
Since 1 September snowfall T 4.4  
Snow Depth T in    
Sea Level Pressure  
Sea Level Pressure 29.87 in    
Wind  
Wind Speed 1 mph (West)    
Max Wind Speed 6 mph    
Max Gust Speed 7 mph    
Visibility 6 miles    
Events Fog , Rain , Snow    
T = Trace of Precipitation, MM = Missing Value Source: NWS Daily Summary

Daily Weather History Graph

Daily Weather History Graph

Search for Another Location

Airport or City:

Trip Planner

Search our weather history database for the weather conditions in past years. The results will help you decide how hot, cold, wet, or windy it might be!

Date:

Astronomy

Nov. 12, 2013 Rise Set
Actual Time 7:40 AM AKST 3:43 PM AKST
Civil Twilight 6:55 AM AKST 4:28 PM AKST
Nautical Twilight 6:06 AM AKST 5:17 PM AKST
Astronomical Twilight 5:20 AM AKST 6:03 PM AKST
Moon 1:58 PM AKST (11/12) 1:34 AM AKST (11/12)
Length of Visible Light 9h 33m
Length of Day
8h 02m
Waxing Gibbous, 77% of the Moon is Illuminated
Nov 12
Waxing Gibbous
Nov 17
Full
Nov 25
Last Quarter
Dec 2
New
Dec 9
First Quarter

Hourly Weather History & Observations

Time (AKST) Temp. Windchill Dew Point Humidity Pressure Visibility Wind Dir Wind Speed Gust Speed Precip Events Conditions
12:53 AM 33.1 °F - 32.0 °F 96% 29.82 in 9.0 mi Calm Calm - 0.00 in Rain , Snow Light Rain
1:27 AM 33.1 °F - 30.9 °F 92% 29.82 in 8.0 mi Calm Calm - 0.01 in Rain , Snow Light Rain
1:53 AM 32.0 °F 27.5 °F 32.0 °F 100% 29.82 in 8.0 mi WSW 4.6 mph - 0.02 in Rain , Snow Light Rain
3:30 AM 33.1 °F - 32.0 °F 96% 29.80 in 2.0 mi Calm Calm - 0.02 in Rain , Snow Light Rain
3:37 AM 32.0 °F 28.7 °F 30.9 °F 96% 29.80 in 2.0 mi West 3.5 mph - 0.02 in Rain , Snow Light Rain
3:53 AM 32.0 °F 27.5 °F 32.0 °F 100% 29.80 in 2.5 mi WNW 4.6 mph - 0.02 in Rain , Snow Light Rain
4:00 AM 32.0 °F 26.4 °F 32.0 °F 100% 29.80 in 4.0 mi WNW 5.8 mph - 0.00 in Rain , Snow Light Rain
4:53 AM 33.1 °F - 30.9 °F 92% 29.79 in 4.0 mi Calm Calm - 0.00 in Snow Light Drizzle
5:40 AM 33.1 °F - 33.1 °F 100% 29.78 in 8.0 mi Calm Calm - 0.01 in   Mostly Cloudy
5:53 AM 33.1 °F - 32.0 °F 96% 29.79 in 8.0 mi Calm Calm - 0.01 in   Mostly Cloudy
6:53 AM 33.1 °F 28.7 °F 32.0 °F 96% 29.80 in 5.0 mi East 4.6 mph - 0.00 in Rain Light Rain
7:53 AM 34.0 °F - 33.1 °F 96% 29.81 in 7.0 mi Calm Calm - 0.01 in   Overcast
8:53 AM 35.1 °F - 34.0 °F 96% 29.83 in 6.0 mi Calm Calm - 0.00 in Rain Light Rain
9:04 AM 34.0 °F - 34.0 °F 100% 29.83 in 3.0 mi Calm Calm - 0.00 in Rain Light Rain
9:22 AM 34.0 °F - 33.1 °F 96% 29.84 in 2.0 mi Calm Calm - 0.00 in Rain Light Rain
9:55 AM 33.8 °F - 33.8 °F 100% 29.84 in 4.0 mi Calm Calm - 0.00 in   Overcast
10:00 AM 34.0 °F - 33.1 °F 96% 29.84 in 4.0 mi Calm Calm - 0.00 in   Overcast
10:07 AM 34.0 °F - 33.1 °F 96% 29.84 in 5.0 mi Calm Calm - 0.01 in   Overcast
10:53 AM 36.0 °F - 34.0 °F 93% 29.85 in 10.0 mi Calm Calm - 0.01 in   Overcast
11:03 AM 35.1 °F 31.0 °F 34.0 °F 96% 29.85 in 7.0 mi WNW 4.6 mph - N/A   Overcast
11:53 AM 36.0 °F - 34.0 °F 93% 29.86 in 10.0 mi Calm Calm - N/A   Overcast
12:01 PM 36.0 °F - 34.0 °F 93% 29.86 in 9.0 mi Calm Calm - N/A   Overcast
12:28 PM 36.0 °F 33.3 °F 35.1 °F 97% 29.86 in 7.0 mi ESE 3.5 mph - N/A   Overcast
12:53 PM 37.0 °F - 36.0 °F 96% 29.86 in 5.0 mi Calm Calm - 0.00 in Rain Light Rain
1:00 PM 36.0 °F - 35.1 °F 97% 29.86 in 6.0 mi Calm Calm - 0.00 in Rain Light Rain
1:38 PM 36.0 °F 33.3 °F 35.1 °F 97% 29.87 in 5.0 mi WNW 3.5 mph - 0.00 in Rain Light Rain
1:55 PM 37.4 °F - 35.6 °F 93% 29.87 in 10.0 mi Calm Calm - 0.00 in Rain Light Rain
2:00 PM 36.0 °F - 35.1 °F 97% 29.87 in 10.0 mi Calm Calm - 0.00 in Rain Light Rain
2:06 PM 37.0 °F - 34.0 °F 89% 29.87 in 10.0 mi Calm Calm - 0.00 in   Overcast
2:53 PM 36.0 °F - 36.0 °F 100% 29.88 in 9.0 mi Calm Calm - 0.00 in   Overcast
3:28 PM 36.0 °F 32.1 °F 34.0 °F 93% 29.89 in 10.0 mi West 4.6 mph - 0.00 in   Light Drizzle
3:53 PM 35.1 °F 32.2 °F 35.1 °F 100% 29.90 in 8.0 mi West 3.5 mph - 0.00 in Rain Light Rain
4:53 PM 35.1 °F - 35.1 °F 100% 29.91 in 6.0 mi Calm Calm - 0.01 in Rain Light Rain
5:53 PM 35.1 °F - 34.0 °F 96% 29.91 in 8.0 mi Calm Calm - 0.00 in Fog , Rain Light Rain
6:53 PM 34.0 °F - 34.0 °F 100% 29.93 in 5.0 mi Calm Calm - 0.01 in Rain Light Rain
7:14 PM 34.0 °F - 34.0 °F 100% 29.93 in 6.0 mi Calm Calm - 0.00 in Rain Light Rain
7:44 PM 35.1 °F - 34.0 °F 96% 29.93 in 5.0 mi Calm Calm - 0.00 in Rain Light Rain
7:53 PM 34.0 °F 31.0 °F 34.0 °F 100% 29.93 in 4.0 mi WNW 3.5 mph - 0.00 in Rain Light Rain
8:53 PM 34.0 °F - 34.0 °F 100% 29.95 in 6.0 mi Calm Calm - 0.00 in   Overcast
9:00 PM 34.0 °F - 34.0 °F 100% 29.95 in 7.0 mi Calm Calm - N/A   Overcast
9:26 PM 34.0 °F - 34.0 °F 100% 29.95 in 7.0 mi Calm Calm - N/A   Overcast
9:31 PM 34.0 °F - 34.0 °F 100% 29.96 in 7.0 mi Calm Calm - N/A   Overcast
9:53 PM 35.1 °F - 34.0 °F 96% 29.96 in 4.0 mi Calm Calm - 0.00 in Rain , Snow Light Rain
10:53 PM 34.0 °F - 34.0 °F 100% 29.98 in 6.0 mi Calm Calm - 0.01 in Rain Light Rain
11:30 PM 34.0 °F - 34.0 °F 100% 29.98 in 8.0 mi Calm Calm - 0.00 in Rain Light Rain
11:53 PM 34.0 °F - 33.1 °F 96% 29.99 in 8.0 mi Calm Calm - 0.00 in Rain Light Rain